Regional Weather Roundup
Issued by NWS

Home | Current Version | Previous Version | Text Only | Print | Product List | Glossary Off
Versions: 1 2 3 4 5 6 7 8 9 10 11 12 13 14 15 16 17 18 19 20 21 22 23 24 25 26 27 28 29 30 31 32 33 34 35 36 37 38 39 40 41 42 43 44 45 46 47 48 49 50

000
ASUS43 KFSD 200602
RWRSD

WEATHER ROUNDUP FOR SOUTH DAKOTA
NATIONAL WEATHER SERVICE SIOUX FALLS SD
1200 AM CST TUE FEB 20 2018

NOTE: "FAIR" INDICATES FEW OR NO CLOUDS BELOW 12,000 FEET WITH NO
SIGNIFICANT WEATHER AND/OR OBSTRUCTIONS TO VISIBILITY.


SDZ001>005-009-010-012>017-200700-
NORTHWEST AND NORTH CENTRAL SOUTH DAKOTA

CITY           SKY/WX    TMP DP  RH WIND       PRES   REMARKS
BUFFALO          N/A      1  -5  75 N3        29.96R
FAITH            N/A      0  -3  87 N10       30.04R WCI -16
MOBRIDGE       CLOUDY     5  -1  76 N9        30.08R HAZE    WCI  -9
$$

SDZ012>016-024>037-041>051-057-063-072>074-200700-
SOUTHWEST AND SOUTH CENTRAL SOUTH DAKOTA

CITY           SKY/WX    TMP DP  RH WIND       PRES   REMARKS
RAPID CTY ARPT LGT SNOW  -1  -5  82 N13       29.97F FOG     WCI -19
PIERRE         LGT SNOW   4   1  88 N13       30.03F VSB 3/4 WCI -13
CUSTER         FLURRIES  -3  -9  75 W3        29.68F
ELLSWORTH AFB  CLOUDY     0  -4  85 N13       29.96  BLWGSNOWWCI -18
PHILIP         LGT SNOW   3  -1  83 N13       30.06S FOG     WCI -14
PINE RIDGE     LGT SNOW   0  -5  79 N9        29.93F WCI -15
SPEARFISH      LGT SNOW  -4  -9  77 CALM      29.93S
WINNER         LGT SNOW   6   1  80 N15       29.98F WCI -12
$$

SDZ004>011-016>023-039-040-200700-
NORTHEAST SOUTH DAKOTA

CITY           SKY/WX    TMP DP  RH WIND       PRES   REMARKS
ABERDEEN       LGT SNOW   4   0  83 N18       30.07R FOG     WCI -16
WATERTOWN      CLOUDY     4   0  83 N17       29.95R WCI -16
BROOKINGS      FLURRIES   8   5  87 N20       29.89F WCI -11
SISSETON         N/A      5   1  83 N16       30.03F WCI -14
$$

SDZ017-020-022-023-036>040-048>070-200700-
SOUTHEAST SOUTH DAKOTA

CITY           SKY/WX    TMP DP  RH WIND       PRES   REMARKS
SIOUX FALLS    FLURRIES  14  11  87 N13       29.86F WCI   0
HURON          LGT SNOW   5   1  83 N16       30.00F VSB 3/4 WCI -14
CHAMBERLAIN      N/A      6   3  86 NW15G21   29.98F WCI -11
MITCHELL       FLURRIES   9   5  84 N18       29.98F WCI -10
YANKTON        FLURRIES  14  10  84 NW18      29.88F WCI  -3
$$

ABBREVIATIONS USED IN REMARKS
   TC - TEMPERATURE IN CELSIUS
  WCI - WIND CHILL INDEX
   HX - HEAT INDEX
  VSB - VISIBILITY





USA.gov is the U.S. government's official web portal to all federal, state and local government web resources and services.